Weather History for KCQX - November, 2012

Change the Weather History Date:

Sunday, November 11, 2012

  Actual Average Record
Temperature  
Mean Temperature 46 °F -  
Max Temperature 55 °F 48 °F 64 °F (2002)
Min Temperature 37 °F 37 °F 29 °F (1973)
Degree Days  
Heating Degree Days 19    
Moisture  
Dew Point 45 °F    
Average Humidity 84    
Maximum Humidity 97    
Minimum Humidity 71    
Precipitation  
Precipitation 0.01 in - - ()
Sea Level Pressure  
Sea Level Pressure 30.52 in    
Wind  
Wind Speed 4 mph (SSW)    
Max Wind Speed 12 mph    
Max Gust Speed 18 mph    
Visibility 9 miles    
Events      
Averages and records for this station are not official NWS values.
T = Trace of Precipitation, MM = Missing Value Source: NWS Daily Summary

Daily Weather History Graph

Daily Weather History Graph

Search for Another Location

Airport or City:

Trip Planner

Search our weather history database for the weather conditions in past years. The results will help you decide how hot, cold, wet, or windy it might be!

Date:

Astronomy

Nov. 11, 2012 Rise Set
Actual Time 6:24 AM EST 4:22 PM EST
Civil Twilight 5:55 AM EST 4:52 PM EST
Nautical Twilight 5:21 AM EST 5:25 PM EST
Astronomical Twilight 4:49 AM EST 5:58 PM EST
Moon 3:33 AM EST (11/11) 2:45 PM EST (11/11)
Length of Visible Light 10h 57m
Length of Day
9h 58m
Waning Crescent, 7% of the Moon is Illuminated
Nov 11
Waning Crescent
Nov 13
New
Nov 20
First Quarter
Nov 28
Full
Dec 6
Last Quarter

Hourly Weather History & Observations

Time (EST) Temp. Windchill Dew Point Humidity Pressure Visibility Wind Dir Wind Speed Gust Speed Precip Events Conditions
12:52 AM 39.0 °F - 35.1 °F 86% 30.48 in 10.0 mi Calm Calm - N/A   Clear
1:52 AM 37.0 °F - 34.0 °F 89% 30.49 in 10.0 mi Calm Calm - N/A   Clear
2:52 AM 37.0 °F - 35.1 °F 93% 30.49 in 10.0 mi Calm Calm - N/A   Clear
3:52 AM 41.0 °F 39.0 °F 37.9 °F 89% 30.50 in 10.0 mi South 3.5 mph - N/A   Overcast
4:52 AM 46.0 °F - 39.0 °F 76% 30.52 in 10.0 mi Calm Calm - N/A   Overcast
5:52 AM 46.0 °F - 39.9 °F 79% 30.55 in 10.0 mi Calm Calm - N/A   Overcast
6:52 AM 46.9 °F - 39.9 °F 77% 30.55 in 10.0 mi SE 3.5 mph - N/A   Overcast
7:52 AM 50.0 °F - 41.0 °F 71% 30.56 in 10.0 mi South 3.5 mph - N/A   Overcast
8:52 AM 51.1 °F - 43.0 °F 74% 30.56 in 10.0 mi South 5.8 mph - N/A   Overcast
9:52 AM 51.1 °F - 44.1 °F 77% 30.54 in 10.0 mi South 9.2 mph - N/A   Overcast
10:52 AM 54.0 °F - 45.0 °F 72% 30.53 in 10.0 mi South 8.1 mph 17.3 mph N/A   Partly Cloudy
11:52 AM 55.9 °F - 46.9 °F 72% 30.52 in 10.0 mi South 11.5 mph 18.4 mph N/A   Overcast
1:52 PM 55.0 °F - 48.9 °F 80% 30.49 in 10.0 mi South 8.1 mph - N/A   Overcast
2:52 PM 54.0 °F - 48.9 °F 83% 30.50 in 10.0 mi South 8.1 mph - N/A   Overcast
3:52 PM 53.1 °F - 48.9 °F 86% 30.50 in 10.0 mi SSW 5.8 mph - N/A   Partly Cloudy
4:52 PM 52.0 °F - 48.9 °F 89% 30.50 in 10.0 mi SSW 8.1 mph - N/A   Clear
5:52 PM 52.0 °F - 48.9 °F 89% 30.52 in 9.0 mi Variable 5.8 mph - N/A   Clear
6:52 PM 52.0 °F - 50.0 °F 93% 30.52 in 8.0 mi SW 8.1 mph - N/A   Clear
7:52 PM 52.0 °F - 48.9 °F 89% 30.52 in 7.0 mi SW 8.1 mph - N/A   Clear
8:52 PM 52.0 °F - 50.0 °F 93% 30.52 in 7.0 mi SSW 6.9 mph - N/A   Clear
9:52 PM 52.0 °F - 48.9 °F 89% 30.52 in 7.0 mi SW 5.8 mph - N/A   Clear
10:52 PM 53.1 °F - 51.1 °F 93% 30.51 in 6.0 mi SSW 9.2 mph - N/A   Clear
11:52 PM 52.0 °F - 51.1 °F 97% 30.52 in 5.0 mi SW 4.6 mph - 0.01 in   Clear